Location: *
(46.1006°N, 1.8394°E)
Time: 18:39:47
(UTC+00:00)

CZ-2C R/B - Pass Details

Date: 20 September 2019
Orbit: 785 x 870 km, 98.3° (Epoch: 20 October)

Event Time Altitude Azimuth Distance (km) Brightness Sun altitude
Rises 21:34:02 0° 8° (N) 3,437 6.4 -34.7°
Reaches altitude 10° 21:36:28 10° 4° (N) 2,506 5.6 -35.0°
Enters shadow 21:40:30 41° 329° (NNW) 1,242 3.8 -35.5°
